Terminal Aerodrome Forecast
Issued by NWS Melbourne, FL

Home | Current Version | Previous Version | Text Only | Print | Product List | Glossary On
Versions: 1 2 3 4 5 6 7 8 9 10 11 12 13 14 15 16 17 18 19 20 21 22 23 24 25 26 27 28
000
FTUS42 KMLB 241726
TAFMCO
TAF
KMCO 241726Z 2418/2518 18007KT P6SM SCT025 SCT100
     FM242000 13009KT P6SM VCTS SCT040CB BKN080
     FM242300 14006KT P6SM VCTS SCT040CB BKN080 BKN250
      TEMPO 2423/2501 3SM TSRA BKN030CB
     FM250400 15003KT P6SM FEW025 SCT250
     FM251300 17006KT P6SM SCT025 SCT080=

USA.gov is the U.S. government's official web portal to all federal, state and local government web resources and services.